Location: Rounton
(54.4000°N, 1.3500°W)
Time: 14:01:31
(UTC+00:00)

Transit 2A Rocket - Pass Details

Date: 30 November 2021
Orbit: 584 x 918 km, 66.7° (Epoch: 17 January)

Event Time Altitude Azimuth Distance (km) Brightness Sun altitude
Rises 10:54:43 0° 254° (WSW) 3,417 8.4 12.8°
Reaches altitude 10° 10:57:17 10° 261° (W) 2,523 7.7 12.9°
Maximum altitude 11:02:50 40° 331° (NNW) 1,311 5.9 13.1°
Drops below altitude 10° 11:08:36 10° 40° (NE) 2,622 7.4 13.3°
Sets 11:11:20 0° 48° (NE) 3,566 8.1 13.3°
